Location: Kra?nica
(53.4833°N, 14.6167°E)
Time: 17:13:18
(UTC+00:00)

Cosmos 1315 Rocket - Pass Details

Date: 23 May 2024
Orbit: 515 x 542 km, 81.2° (Epoch: 12 June)

Event Time Altitude Azimuth Distance (km) Brightness Sun altitude
Exits shadow 00:04:42 15° 148° (SSE) 1,481 4.6 -14.5°
Maximum altitude 00:07:18 30° 93° (E) 965 4.2 -14.4°
Drops below altitude 10° 00:10:46 10° 31° (NNE) 1,789 6.7 -14.2°
Sets 00:13:06 0° 21° (NNE) 2,690 8.3 -14.1°
